QPF
0.02 0.03 0.04 0.05 0.04 0.05 0.05 0.07 0.09 0.11 0.12 0.12 0.14 0.11 0.10 0.12 0.15 0.12 0.09 0.12 0.10 0.08 0.08 0.07 0.08 0.12 0.13 0.13 0.12 0.10 0.09 0.10 0.08 0.08 0.06 0.05 0.04 0.05 0.04 0.05 0.04 0.02 0.03
0.02 0.02 0.04 0.05 0.04 0.04 0.06 0.06 0.07 0.10 0.12 0.12 0.13 0.14 0.13 0.14 0.14 0.14 0.10 0.10 0.09 0.08 0.07 0.05 0.06 0.09 0.11 0.11 0.11 0.08 0.08 0.10 0.09 0.09 0.08 0.07 0.06 0.06 0.04 0.04 0.05 0.04 0.04
0.02 0.03 0.05 0.05 0.04 0.05 0.06 0.08 0.08 0.13 0.15 0.11 0.10 0.09 0.10 0.12 0.10 0.10 0.12 0.15 0.15 0.10 0.06 0.04 0.04 0.06 0.07 0.07 0.06 0.06 0.06 0.06 0.06 0.07 0.08 0.08 0.08 0.07 0.05 0.05 0.06 0.06 0.06
0.01 0.02 0.03 0.05 0.05 0.05 0.06 0.09 0.12 0.15 0.12 0.09 0.08 0.07 0.06 0.06 0.06 0.07 0.08 0.13 0.18 0.13 0.06 0.05 0.04 0.05 0.06 0.05 0.06 0.06 0.05 0.05 0.07 0.07 0.06 0.07 0.07 0.08 0.10 0.09 0.09 0.10 0.09
0.01 0.02 0.04 0.06 0.06 0.05 0.06 0.08 0.10 0.09 0.09 0.09 0.09 0.08 0.07 0.05 0.05 0.06 0.07 0.09 0.08 0.08 0.05 0.04 0.03 0.05 0.05 0.05 0.06 0.07 0.07 0.06 0.07 0.07 0.07 0.07 0.07 0.07 0.08 0.08 0.08 0.09 0.09
0.02 0.03 0.06 0.05 0.04 0.05 0.06 0.06 0.05 0.06 0.09 0.09 0.07 0.06 0.06 0.05 0.06 0.06 0.06 0.10 0.07 0.03 0.03 0.03 0.02 0.03 0.04 0.05 0.06 0.05 0.05 0.07 0.07 0.12 0.12 0.11 0.09 0.08 0.08 0.07 0.06 0.06 0.06
0.01 0.01 0.02 0.01 0.01 0.03 0.04 0.06 0.05 0.05 0.09 0.10 0.07 0.06 0.05 0.05 0.05 0.06 0.06 0.07 0.06 0.04 0.03 0.03 0.03 0.03 0.04 0.04 0.04 0.04 0.04 0.05 0.06 0.10 0.11 0.12 0.11 0.07 0.07 0.07 0.08 0.08 0.06
0.01 0.02 0.02 0.01 0.01 0.02 0.03 0.05 0.06 0.08 0.10 0.11 0.08 0.06 0.06 0.06 0.06 0.06 0.07 0.05 0.06 0.05 0.03 0.04 0.03 0.03 0.04 0.05 0.04 0.04 0.04 0.03 0.03 0.05 0.07 0.10 0.10 0.08 0.09 0.08 0.09 0.10 0.08
0.01 0.01 0.02 0.02 0.02 0.02 0.04 0.06 0.08 0.12 0.11 0.09 0.06 0.06 0.06 0.06 0.05 0.06 0.07 0.07 0.06 0.06 0.05 0.03 0.03 0.04 0.04 0.05 0.05 0.05 0.06 0.05 0.05 0.05 0.05 0.08 0.10 0.10 0.11 0.11 0.09 0.10 0.10
0.00 0.01 0.02 0.02 0.03 0.04 0.06 0.06 0.08 0.12 0.09 0.07 0.05 0.05 0.05 0.06 0.05 0.05 0.05 0.07 0.08 0.09 0.07 0.06 0.05 0.05 0.07 0.08 0.06 0.06 0.07 0.07 0.05 0.04 0.05 0.06 0.09 0.12 0.13 0.12 0.11 0.10 0.09
0.01 0.01 0.02 0.02 0.04 0.05 0.07 0.08 0.10 0.13 0.08 0.07 0.06 0.05 0.05 0.05 0.05 0.06 0.03 0.04 0.06 0.07 0.10 0.10 0.08 0.08 0.11 0.12 0.10 0.09 0.08 0.07 0.05 0.04 0.05 0.05 0.07 0.10 0.13 0.14 0.12 0.10 0.07
0.01 0.01 0.01 0.01 0.02 0.04 0.05 0.10 0.13 0.11 0.08 0.07 0.07 0.07 0.06 0.05 0.05 0.07 0.07 0.05 0.05 0.04 0.06 0.10 0.12 0.13 0.14 0.15 0.15 0.14 0.09 0.05 0.05 0.03 0.03 0.04 0.05 0.06 0.09 0.13 0.13 0.12 0.10
0.02 0.01 0.02 0.03 0.03 0.04 0.04 0.12 0.13 0.10 0.07 0.07 0.06 0.07 0.06 0.05 0.05 0.08 0.10 0.08 0.08 0.07 0.07 0.08 0.08 0.10 0.13 0.19 0.20 0.17 0.14 0.11 0.08 0.05 0.04 0.04 0.03 0.03 0.05 0.06 0.08 0.12 0.14
0.04 0.03 0.03 0.02 0.03 0.04 0.04 0.10 0.12 0.08 0.05 0.05 0.05 0.06 0.07 0.06 0.06 0.06 0.07 0.09 0.10 0.11 0.10 0.09 0.12 0.14 0.12 0.13 0.16 0.15 0.12 0.08 0.05 0.05 0.04 0.03 0.03 0.03 0.02 0.04 0.07 0.09 0.09
0.06 0.06 0.06 0.04 0.03 0.04 0.04 0.06 0.09 0.06 0.04 0.03 0.03 0.04 0.06 0.07 0.06 0.06 0.06 0.06 0.09 0.10 0.10 0.08 0.11 0.19 0.13 0.08 0.08 0.13 0.12 0.07 0.04 0.04 0.03 0.03 0.04 0.04 0.05 0.07 0.08 0.09 0.11
0.04 0.06 0.07 0.05 0.03 0.03 0.03 0.05 0.08 0.10 0.12 0.10 0.10 0.07 0.07 0.09 0.06 0.06 0.05 0.05 0.06 0.06 0.06 0.07 0.11 0.15 0.10 0.10 0.08 0.09 0.13 0.13 0.09 0.06 0.04 0.03 0.04 0.07 0.09 0.06 0.06 0.07 0.09
0.03 0.03 0.03 0.03 0.03 0.03 0.03 0.04 0.06 0.06 0.07 0.07 0.06 0.05 0.05 0.05 0.04 0.05 0.06 0.06 0.06 0.05 0.05 0.07 0.09 0.09 0.10 0.13 0.12 0.11 0.13 0.11 0.07 0.05 0.04 0.04 0.05 0.04 0.04 0.03 0.04 0.05 0.07
0.05 0.04 0.03 0.02 0.02 0.02 0.02 0.03 0.04 0.04 0.05 0.06 0.05 0.04 0.04 0.04 0.04 0.05 0.05 0.05 0.05 0.06 0.07 0.06 0.05 0.04 0.06 0.07 0.06 0.04 0.04 0.05 0.05 0.05 0.05 0.05 0.04 0.03 0.03 0.03 0.04 0.04 0.06
0.03 0.02 0.03 0.02 0.02 0.02 0.02 0.03 0.04 0.05 0.06 0.05 0.04 0.04 0.04 0.03 0.03 0.04 0.05 0.05 0.04 0.03 0.04 0.04 0.03 0.04 0.04 0.04 0.04 0.03 0.03 0.04 0.04 0.03 0.02 0.02 0.02 0.02 0.03 0.04 0.04 0.03 0.07
0.01 0.01 0.02 0.02 0.03 0.03 0.04 0.05 0.06 0.05 0.05 0.05 0.04 0.04 0.03 0.03 0.03 0.03 0.03 0.03 0.02 0.03 0.04 0.04 0.04 0.03 0.04 0.05 0.04 0.04 0.03 0.04 0.04 0.04 0.03 0.02 0.02 0.01 0.02 0.02 0.04 0.04 0.05
0.00 0.01 0.02 0.03 0.03 0.04 0.04 0.06 0.08 0.07 0.05 0.04 0.03 0.03 0.04 0.04 0.04 0.03 0.03 0.03 0.02 0.02 0.04 0.04 0.03 0.03 0.04 0.05 0.04 0.03 0.03 0.03 0.04 0.04 0.04 0.03 0.01 0.01 0.01 0.01 0.02 0.03 0.03
0.02 0.01 0.02 0.02 0.02 0.04 0.04 0.05 0.07 0.07 0.05 0.03 0.03 0.03 0.04 0.05 0.05 0.03 0.03 0.03 0.02 0.03 0.03 0.03 0.03 0.03 0.04 0.04 0.04 0.04 0.04 0.03 0.03 0.03 0.03 0.03 0.02 0.02 0.02 0.02 0.03 0.03 0.03
0.02 0.01 0.01 0.02 0.02 0.03 0.03 0.03 0.03 0.04 0.04 0.04 0.04 0.04 0.04 0.03 0.03 0.03 0.03 0.03 0.03 0.03 0.03 0.05 0.04 0.04 0.04 0.04 0.04 0.05 0.05 0.04 0.04 0.04 0.03 0.03 0.03 0.04 0.04 0.04 0.04 0.04 0.03
0.01 0.00 0.00 0.01 0.01 0.02 0.04 0.03 0.04 0.05 0.05 0.04 0.04 0.02 0.02 0.02 0.01 0.02 0.02 0.02 0.03 0.02 0.03 0.04 0.03 0.03 0.03 0.03 0.03 0.04 0.04 0.04 0.04 0.03 0.04 0.04 0.04 0.04 0.03 0.03 0.04 0.05 0.04
0.01 0.00 0.01 0.01 0.01 0.01 0.02 0.05 0.05 0.04 0.04 0.03 0.02 0.02 0.03 0.03 0.02 0.02 0.02 0.02 0.04 0.04 0.03 0.02 0.03 0.03 0.03 0.04 0.03 0.03 0.03 0.03 0.03 0.03 0.03 0.05 0.05 0.04 0.03 0.03 0.03 0.04 0.05
0.00 0.00 0.01 0.00 0.00 0.00 0.01 0.04 0.06 0.05 0.04 0.03 0.03 0.03 0.04 0.04 0.03 0.03 0.02 0.04 0.05 0.05 0.04 0.03 0.03 0.02 0.03 0.03 0.03 0.04 0.04 0.04 0.04 0.04 0.03 0.03 0.04 0.04 0.03 0.03 0.03 0.03 0.03
MSLP
1008.98 1008.82 1008.85 1009.03 1009.28 1009.53 1009.70 1009.77 1009.73 1009.64 1009.57 1009.60 1009.77 1010.10 1010.54 1011.03 1011.50 1011.87 1012.11 1012.22 1012.25 1012.26 1012.32 1012.47 1012.72 1013.07 1013.45 1013.82 1014.13 1014.35 1014.49 1014.58 1014.65 1014.76 1014.91 1015.13 1015.39 1015.66 1015.92 1016.14 1016.31 1016.43 1016.53
1008.94 1008.86 1008.96 1009.19 1009.48 1009.75 1009.93 1010.00 1009.97 1009.89 1009.83 1009.87 1010.05 1010.37 1010.80 1011.27 1011.71 1012.06 1012.28 1012.40 1012.45 1012.49 1012.59 1012.79 1013.07 1013.43 1013.80 1014.14 1014.40 1014.57 1014.67 1014.72 1014.79 1014.90 1015.09 1015.35 1015.66 1015.98 1016.27 1016.50 1016.66 1016.76 1016.83
1008.75 1008.79 1008.99 1009.31 1009.66 1009.98 1010.20 1010.29 1010.28 1010.21 1010.16 1010.20 1010.37 1010.67 1011.06 1011.49 1011.88 1012.19 1012.40 1012.52 1012.60 1012.69 1012.85 1013.10 1013.42 1013.80 1014.16 1014.46 1014.67 1014.77 1014.81 1014.82 1014.87 1014.99 1015.21 1015.51 1015.86 1016.21 1016.53 1016.77 1016.94 1017.04 1017.10
1008.50 1008.66 1008.98 1009.40 1009.84 1010.22 1010.49 1010.62 1010.63 1010.58 1010.54 1010.58 1010.73 1010.99 1011.33 1011.71 1012.05 1012.32 1012.51 1012.64 1012.76 1012.91 1013.14 1013.45 1013.82 1014.22 1014.57 1014.83 1014.97 1015.01 1014.98 1014.95 1014.96 1015.07 1015.30 1015.63 1016.02 1016.40 1016.74 1017.01 1017.18 1017.29 1017.36
1008.24 1008.52 1008.96 1009.48 1010.01 1010.46 1010.77 1010.94 1010.98 1010.95 1010.92 1010.96 1011.09 1011.32 1011.63 1011.95 1012.25 1012.50 1012.68 1012.83 1013.00 1013.21 1013.51 1013.88 1014.30 1014.71 1015.05 1015.27 1015.35 1015.32 1015.23 1015.13 1015.11 1015.21 1015.43 1015.77 1016.18 1016.58 1016.94 1017.22 1017.41 1017.53 1017.62
1008.06 1008.43 1008.96 1009.56 1010.15 1010.65 1011.00 1011.20 1011.26 1011.26 1011.25 1011.30 1011.43 1011.66 1011.94 1012.24 1012.52 1012.76 1012.95 1013.13 1013.34 1013.61 1013.97 1014.39 1014.84 1015.26 1015.58 1015.76 1015.78 1015.69 1015.54 1015.39 1015.33 1015.41 1015.63 1015.96 1016.37 1016.78 1017.15 1017.43 1017.63 1017.76 1017.86
1008.00 1008.44 1009.01 1009.65 1010.26 1010.77 1011.14 1011.35 1011.43 1011.45 1011.48 1011.56 1011.72 1011.97 1012.27 1012.58 1012.87 1013.11 1013.32 1013.53 1013.78 1014.10 1014.49 1014.94 1015.41 1015.82 1016.11 1016.24 1016.22 1016.08 1015.88 1015.70 1015.61 1015.67 1015.88 1016.21 1016.61 1017.02 1017.38 1017.66 1017.85 1017.98 1018.08
1008.10 1008.55 1009.12 1009.74 1010.33 1010.82 1011.16 1011.36 1011.46 1011.51 1011.58 1011.71 1011.94 1012.24 1012.59 1012.94 1013.26 1013.54 1013.78 1014.01 1014.29 1014.62 1015.02 1015.47 1015.92 1016.30 1016.55 1016.65 1016.58 1016.41 1016.18 1015.99 1015.89 1015.95 1016.16 1016.48 1016.88 1017.27 1017.61 1017.87 1018.05 1018.16 1018.25
1008.34 1008.75 1009.28 1009.84 1010.37 1010.79 1011.09 1011.26 1011.36 1011.44 1011.56 1011.76 1012.06 1012.45 1012.87 1013.29 1013.66 1013.98 1014.25 1014.50 1014.77 1015.09 1015.47 1015.88 1016.28 1016.61 1016.82 1016.88 1016.79 1016.60 1016.38 1016.19 1016.12 1016.19 1016.41 1016.74 1017.13 1017.52 1017.84 1018.08 1018.22 1018.30 1018.36
1008.65 1009.02 1009.48 1009.96 1010.39 1010.73 1010.96 1011.09 1011.18 1011.28 1011.45 1011.73 1012.12 1012.59 1013.09 1013.58 1014.02 1014.38 1014.67 1014.92 1015.18 1015.46 1015.79 1016.13 1016.46 1016.73 1016.88 1016.90 1016.80 1016.61 1016.41 1016.27 1016.23 1016.34 1016.60 1016.95 1017.35 1017.73 1018.04 1018.25 1018.36 1018.40 1018.42
1008.99 1009.31 1009.69 1010.08 1010.42 1010.67 1010.83 1010.92 1010.99 1011.11 1011.32 1011.66 1012.12 1012.66 1013.24 1013.79 1014.28 1014.67 1014.98 1015.23 1015.45 1015.69 1015.94 1016.21 1016.46 1016.65 1016.75 1016.74 1016.63 1016.46 1016.30 1016.20 1016.23 1016.39 1016.69 1017.07 1017.49 1017.88 1018.18 1018.37 1018.46 1018.47 1018.44
1009.28 1009.56 1009.88 1010.20 1010.46 1010.64 1010.75 1010.80 1010.86 1010.99 1011.22 1011.59 1012.09 1012.68 1013.30 1013.90 1014.42 1014.84 1015.15 1015.39 1015.59 1015.77 1015.97 1016.16 1016.33 1016.45 1016.50 1016.46 1016.35 1016.20 1016.08 1016.04 1016.12 1016.34 1016.68 1017.10 1017.54 1017.94 1018.25 1018.44 1018.51 1018.49 1018.42
1009.46 1009.73 1010.02 1010.30 1010.52 1010.67 1010.75 1010.79 1010.84 1010.96 1011.20 1011.57 1012.07 1012.67 1013.30 1013.90 1014.43 1014.87 1015.19 1015.43 1015.61 1015.77 1015.91 1016.05 1016.16 1016.23 1016.23 1016.16 1016.05 1015.93 1015.84 1015.84 1015.96 1016.21 1016.59 1017.03 1017.49 1017.90 1018.22 1018.42 1018.49 1018.46 1018.37
1009.48 1009.76 1010.06 1010.34 1010.58 1010.73 1010.82 1010.87 1010.93 1011.04 1011.26 1011.61 1012.08 1012.63 1013.23 1013.82 1014.35 1014.78 1015.13 1015.38 1015.57 1015.73 1015.86 1015.96 1016.04 1016.07 1016.04 1015.95 1015.84 1015.72 1015.64 1015.66 1015.79 1016.06 1016.43 1016.88 1017.33 1017.75 1018.07 1018.28 1018.36 1018.34 1018.26
1009.33 1009.64 1009.98 1010.31 1010.59 1010.80 1010.93 1011.02 1011.10 1011.21 1011.40 1011.70 1012.10 1012.59 1013.13 1013.67 1014.18 1014.63 1014.99 1015.28 1015.51 1015.70 1015.84 1015.95 1016.02 1016.04 1015.99 1015.89 1015.76 1015.63 1015.55 1015.55 1015.66 1015.89 1016.23 1016.64 1017.07 1017.46 1017.78 1017.99 1018.09 1018.09 1018.02
1009.02 1009.37 1009.76 1010.16 1010.52 1010.82 1011.04 1011.19 1011.31 1011.43 1011.59 1011.83 1012.15 1012.56 1013.02 1013.50 1013.98 1014.43 1014.83 1015.17 1015.46 1015.70 1015.89 1016.04 1016.12 1016.14 1016.09 1015.99 1015.84 1015.69 1015.57 1015.53 1015.58 1015.74 1016.00 1016.33 1016.69 1017.03 1017.32 1017.52 1017.63 1017.66 1017.62
1008.60 1008.98 1009.43 1009.91 1010.36 1010.77 1011.09 1011.33 1011.50 1011.64 1011.78 1011.97 1012.21 1012.53 1012.90 1013.33 1013.78 1014.23 1014.66 1015.06 1015.42 1015.73 1015.98 1016.17 1016.29 1016.32 1016.28 1016.17 1016.01 1015.83 1015.67 1015.57 1015.54 1015.60 1015.75 1015.97 1016.22 1016.48 1016.71 1016.88 1016.99 1017.04 1017.03
1008.16 1008.55 1009.04 1009.58 1010.13 1010.63 1011.06 1011.39 1011.64 1011.81 1011.95 1012.09 1012.27 1012.51 1012.82 1013.19 1013.61 1014.06 1014.52 1014.96 1015.38 1015.75 1016.06 1016.29 1016.44 1016.50 1016.47 1016.36 1016.19 1016.00 1015.80 1015.63 1015.51 1015.47 1015.49 1015.58 1015.70 1015.85 1015.99 1016.11 1016.20 1016.26 1016.28
1007.78 1008.16 1008.66 1009.24 1009.85 1010.44 1010.96 1011.39 1011.70 1011.92 1012.07 1012.20 1012.34 1012.52 1012.77 1013.09 1013.48 1013.92 1014.39 1014.87 1015.32 1015.73 1016.07 1016.33 1016.51 1016.59 1016.57 1016.48 1016.32 1016.11 1015.89 1015.68 1015.49 1015.35 1015.25 1015.20 1015.19 1015.21 1015.25 1015.30 1015.35 1015.40 1015.44
1007.52 1007.86 1008.35 1008.94 1009.59 1010.23 1010.82 1011.32 1011.70 1011.97 1012.16 1012.29 1012.40 1012.55 1012.76 1013.05 1013.41 1013.83 1014.29 1014.77 1015.23 1015.64 1015.99 1016.26 1016.45 1016.54 1016.54 1016.47 1016.33 1016.15 1015.93 1015.70 1015.47 1015.25 1015.05 1014.89 1014.75 1014.65 1014.58 1014.54 1014.54 1014.57 1014.62
1007.42 1007.72 1008.17 1008.74 1009.39 1010.05 1010.68 1011.22 1011.66 1011.98 1012.20 1012.35 1012.47 1012.61 1012.79 1013.05 1013.38 1013.77 1014.21 1014.66 1015.09 1015.49 1015.82 1016.08 1016.25 1016.35 1016.38 1016.34 1016.24 1016.10 1015.92 1015.70 1015.46 1015.21 1014.94 1014.69 1014.45 1014.24 1014.07 1013.95 1013.89 1013.88 1013.92
1007.48 1007.74 1008.14 1008.67 1009.28 1009.93 1010.56 1011.12 1011.59 1011.94 1012.20 1012.37 1012.51 1012.65 1012.83 1013.06 1013.37 1013.72 1014.12 1014.53 1014.92 1015.27 1015.57 1015.80 1015.96 1016.07 1016.12 1016.12 1016.08 1015.99 1015.87 1015.70 1015.49 1015.23 1014.94 1014.63 1014.32 1014.03 1013.77 1013.58 1013.46 1013.42 1013.44
1007.67 1007.89 1008.24 1008.71 1009.26 1009.86 1010.46 1011.02 1011.49 1011.86 1012.14 1012.34 1012.49 1012.64 1012.82 1013.04 1013.32 1013.65 1014.01 1014.37 1014.72 1015.03 1015.28 1015.49 1015.64 1015.75 1015.82 1015.87 1015.89 1015.87 1015.81 1015.71 1015.54 1015.31 1015.03 1014.70 1014.35 1014.01 1013.70 1013.46 1013.29 1013.20 1013.20
1007.91 1008.11 1008.41 1008.82 1009.30 1009.84 1010.38 1010.89 1011.34 1011.71 1011.99 1012.20 1012.37 1012.53 1012.71 1012.93 1013.19 1013.50 1013.83 1014.16 1014.48 1014.75 1014.99 1015.18 1015.33 1015.45 1015.55 1015.63 1015.70 1015.75 1015.76 1015.72 1015.61 1015.42 1015.16 1014.84 1014.49 1014.13 1013.79 1013.51 1013.31 1013.19 1013.16
1008.12 1008.32 1008.59 1008.93 1009.35 1009.81 1010.28 1010.73 1011.13 1011.47 1011.73 1011.94 1012.11 1012.28 1012.46 1012.68 1012.94 1013.24 1013.56 1013.88 1014.18 1014.46 1014.69 1014.88 1015.05 1015.18 1015.31 1015.43 1015.54 1015.63 1015.69 1015.69 1015.63 1015.49 1015.27 1014.97 1014.64 1014.28 1013.95 1013.66 1013.43 1013.30 1013.25
1008.25 1008.45 1008.70 1009.00 1009.35 1009.73 1010.12 1010.50 1010.84 1011.13 1011.36 1011.55 1011.71 1011.87 1012.05 1012.27 1012.53 1012.84 1013.17 1013.50 1013.82 1014.12 1014.38 1014.59 1014.78 1014.94 1015.09 1015.23 1015.36 1015.47 1015.55 1015.59 1015.55 1015.44 1015.26 1015.00 1014.70 1014.38 1014.06 1013.78 1013.57 1013.42 1013.35
Thickness
5806 5806 5798 5797 5796 5795 5795 5795 5796 5794 5792 5791 5789 5788 5787 5786 5785 5784 5783 5782 5782 5781 5780 5779 5777 5776 5774 5773 5772 5772 5771 5770 5768 5767 5766 5765 5764 5763 5762 5761 5761 5761 5759
5809 5806 5798 5797 5796 5795 5794 5794 5793 5792 5791 5790 5788 5787 5786 5785 5784 5783 5782 5782 5781 5780 5779 5778 5777 5776 5774 5773 5772 5771 5770 5769 5768 5767 5765 5765 5764 5763 5762 5762 5762 5762 5759
5809 5806 5800 5796 5795 5794 5794 5793 5792 5791 5790 5788 5787 5786 5785 5784 5784 5783 5782 5781 5780 5779 5778 5778 5776 5775 5774 5772 5771 5771 5770 5769 5768 5767 5767 5768 5767 5764 5762 5762 5761 5760 5759
5809 5807 5802 5796 5795 5794 5793 5792 5791 5790 5789 5788 5786 5785 5785 5784 5783 5783 5782 5781 5780 5779 5778 5777 5776 5775 5773 5772 5771 5770 5769 5768 5768 5768 5770 5771 5769 5765 5763 5762 5760 5759 5758
5809 5807 5800 5796 5794 5793 5792 5791 5790 5790 5788 5787 5786 5786 5785 5784 5783 5783 5782 5781 5780 5779 5778 5777 5775 5774 5773 5772 5771 5770 5769 5768 5768 5769 5772 5771 5769 5766 5764 5762 5761 5760 5758
5809 5807 5800 5795 5793 5793 5792 5791 5790 5789 5788 5787 5786 5785 5784 5784 5783 5783 5782 5781 5780 5779 5778 5777 5775 5774 5773 5772 5771 5770 5769 5769 5769 5772 5772 5771 5770 5766 5764 5763 5761 5760 5759
5810 5807 5802 5795 5793 5792 5791 5790 5789 5788 5787 5786 5785 5785 5784 5784 5783 5783 5783 5782 5781 5779 5778 5777 5776 5775 5774 5772 5771 5770 5769 5769 5772 5773 5772 5772 5770 5766 5764 5763 5761 5760 5759
5810 5808 5802 5795 5794 5792 5791 5790 5789 5788 5786 5785 5785 5784 5784 5784 5783 5783 5782 5782 5781 5780 5779 5778 5776 5775 5774 5772 5771 5770 5770 5770 5773 5775 5775 5773 5770 5767 5765 5763 5762 5761 5760
5811 5808 5806 5802 5797 5794 5792 5790 5789 5788 5786 5785 5785 5784 5784 5783 5783 5783 5782 5782 5781 5781 5779 5778 5777 5775 5774 5773 5772 5771 5770 5771 5773 5776 5776 5774 5770 5767 5766 5764 5763 5762 5761
5809 5808 5807 5804 5802 5800 5797 5792 5790 5788 5787 5786 5785 5784 5784 5784 5784 5783 5783 5782 5781 5780 5780 5779 5778 5776 5775 5774 5773 5772 5772 5772 5776 5777 5776 5773 5769 5767 5766 5765 5764 5763 5762
5806 5807 5807 5805 5803 5801 5800 5795 5792 5789 5787 5787 5786 5785 5785 5787 5787 5786 5784 5782 5781 5780 5779 5779 5778 5777 5776 5775 5774 5773 5773 5776 5777 5777 5775 5772 5769 5767 5766 5765 5764 5763 5762
5803 5805 5807 5805 5803 5802 5800 5796 5795 5793 5790 5789 5788 5787 5787 5786 5786 5786 5783 5781 5781 5780 5780 5779 5779 5778 5778 5780 5778 5776 5778 5778 5778 5778 5776 5771 5769 5767 5766 5765 5764 5763 5762
5804 5805 5806 5804 5802 5802 5800 5798 5796 5795 5792 5790 5789 5787 5786 5787 5787 5786 5785 5783 5782 5781 5782 5781 5782 5782 5782 5781 5780 5780 5779 5780 5779 5779 5777 5772 5769 5767 5766 5765 5764 5763 5761
5804 5804 5805 5804 5801 5799 5799 5798 5796 5795 5793 5792 5789 5787 5787 5787 5787 5786 5785 5785 5784 5783 5782 5783 5783 5781 5781 5780 5780 5780 5779 5780 5780 5778 5775 5772 5769 5767 5766 5765 5763 5762 5761
5803 5803 5804 5802 5800 5798 5796 5795 5796 5794 5794 5791 5789 5788 5787 5787 5786 5786 5784 5783 5784 5784 5784 5783 5783 5780 5780 5779 5779 5779 5779 5779 5778 5777 5775 5772 5769 5767 5766 5764 5763 5761 5760
5804 5804 5804 5801 5799 5796 5794 5793 5793 5793 5791 5791 5790 5788 5787 5787 5786 5785 5784 5783 5784 5784 5783 5782 5781 5780 5780 5779 5778 5778 5778 5779 5777 5776 5775 5773 5769 5767 5765 5764 5762 5760 5760
5805 5805 5802 5801 5799 5796 5794 5793 5793 5792 5791 5790 5789 5787 5786 5786 5785 5785 5785 5784 5784 5784 5782 5782 5781 5780 5780 5779 5778 5778 5778 5777 5776 5775 5774 5772 5771 5768 5765 5763 5761 5760 5759
5807 5803 5802 5802 5799 5795 5793 5791 5792 5791 5790 5789 5788 5787 5785 5784 5784 5784 5784 5784 5783 5783 5783 5782 5780 5780 5778 5778 5777 5777 5778 5776 5775 5774 5773 5771 5770 5769 5766 5763 5761 5759 5758
5807 5804 5801 5800 5798 5796 5794 5791 5790 5788 5787 5788 5787 5787 5785 5784 5784 5784 5783 5782 5782 5783 5782 5782 5780 5778 5776 5775 5776 5777 5777 5776 5774 5774 5773 5771 5769 5767 5765 5762 5760 5759 5757
5809 5805 5802 5800 5797 5795 5793 5791 5789 5788 5787 5787 5786 5784 5783 5783 5783 5783 5783 5781 5782 5781 5779 5778 5776 5775 5774 5773 5775 5775 5775 5775 5774 5772 5771 5770 5768 5766 5765 5763 5761 5759 5756
5809 5805 5802 5799 5797 5794 5792 5789 5787 5786 5786 5786 5786 5784 5783 5782 5782 5781 5782 5779 5779 5779 5776 5776 5775 5773 5772 5772 5770 5770 5773 5774 5772 5770 5769 5768 5766 5764 5763 5761 5759 5758 5756
5808 5806 5803 5800 5797 5795 5793 5790 5788 5787 5787 5787 5786 5784 5783 5781 5781 5782 5778 5779 5778 5776 5773 5772 5770 5770 5770 5770 5767 5764 5764 5766 5766 5770 5766 5764 5763 5762 5760 5759 5756 5753 5753
5809 5807 5805 5801 5798 5795 5793 5791 5788 5785 5784 5784 5783 5782 5781 5780 5779 5778 5777 5777 5776 5775 5773 5770 5769 5766 5765 5766 5766 5761 5756 5756 5759 5763 5762 5761 5759 5758 5757 5756 5753 5751 5749
5813 5811 5806 5802 5798 5795 5792 5790 5786 5783 5780 5781 5781 5781 5780 5778 5778 5777 5775 5773 5773 5773 5770 5769 5769 5766 5762 5762 5763 5761 5758 5757 5750 5752 5756 5757 5755 5753 5753 5753 5751 5749 5747
5815 5812 5807 5802 5797 5795 5792 5789 5785 5783 5782 5781 5779 5777 5776 5777 5775 5774 5772 5771 5769 5769 5767 5765 5764 5762 5761 5759 5758 5757 5755 5753 5751 5747 5746 5748 5750 5751 5751 5749 5748 5747 5744
5816 5812 5808 5801 5796 5793 5790 5788 5784 5780 5778 5776 5774 5774 5774 5774 5773 5771 5770 5768 5767 5766 5763 5762 5760 5758 5757 5755 5754 5754 5751 5749 5746 5745 5743 5743 5744 5746 5746 5745 5744 5743 5741